Regional Weather Roundup
Issued by NWS

Home | Current Version | Previous Version | Graphics & Text | Print | Product List | Glossary On
Versions: 1 2 3 4 5 6 7 8 9 10 11 12 13 14 15 16 17 18 19 20 21 22 23 24 25 26 27 28 29 30 31 32 33 34 35 36 37 38 39 40 41 42 43 44 45 46 47 48 49 50
000
ASUS43 KFSD 301110
RWRSD

WEATHER ROUNDUP FOR SOUTH DAKOTA
NATIONAL WEATHER SERVICE SIOUX FALLS SD
600 AM CDT SAT JUL 30 2016

NOTE: "FAIR" INDICATES FEW OR NO CLOUDS BELOW 12,000 FEET WITH NO
SIGNIFICANT WEATHER AND/OR OBSTRUCTIONS TO VISIBILITY.


SDZ001>005-009-010-012>017-301200-
NORTHWEST AND NORTH CENTRAL SOUTH DAKOTA

CITY           SKY/WX    TMP DP  RH WIND       PRES   REMARKS
BUFFALO          N/A     60  55  83 CALM      29.88S
FAITH            N/A     60  58  92 S14       29.92F
MOBRIDGE       CLEAR     66  57  72 S12       29.92F
$$

SDZ012>016-024>037-041>051-057-063-072>074-301200-
SOUTHWEST AND SOUTH CENTRAL SOUTH DAKOTA

CITY           SKY/WX    TMP DP  RH WIND       PRES   REMARKS
RAPID CTY ARPT CLEAR     53  51  93 NW3       29.95F
PIERRE         CLEAR     62  57  83 E9        29.93F
CUSTER         CLEAR     55  50  83 NW5       30.10F
ELLSWORTH AFB  CLEAR     58  56  92 CALM      29.95F
PHILIP         CLEAR     63  62  97 S3        29.93F
PINE RIDGE     CLEAR     52  52 100 E5        29.99F
WINNER         RAIN      65  62  90 S13       29.98R FOG
$$

SDZ004>011-016>023-039-040-301200-
NORTHEAST SOUTH DAKOTA

CITY           SKY/WX    TMP DP  RH WIND       PRES   REMARKS
ABERDEEN       PTCLDY    60  55  83 S7        29.98S
WATERTOWN      CLEAR     58  54  86 SE6       30.02S
BROOKINGS      CLEAR     57  54  89 SE5       30.03S
SISSETON         N/A     65  58  78 S3        29.99S
$$

SDZ017-020-022-023-036>040-048>070-301200-
SOUTHEAST SOUTH DAKOTA

CITY           SKY/WX    TMP DP  RH WIND       PRES   REMARKS
SIOUX FALLS    PTCLDY    54  52  93 NE3       30.03S
HURON          CLEAR     58  55  90 SE7       29.99F
CHAMBERLAIN    CLEAR     60  59  97 SE6       29.98F
MITCHELL       CLEAR     59  56  89 SE6       30.01S
YANKTON        CLEAR     59  55  88 CALM      30.01S
$$

ABBREVIATIONS USED IN REMARKS
   TC - TEMPERATURE IN CELSIUS
  WCI - WIND CHILL INDEX
   HX - HEAT INDEX
  VSB - VISIBILITY





USA.gov is the U.S. government's official web portal to all federal, state and local government web resources and services.